Flag for Venezuela Weather past 2 weeks in Maracaibo, Venezuela

Now
86 °F

Partly sunny.


Feels Like: 95 °F
Forecast: 78 / 91 °F
Wind: N/A

Location: Maracaibo-La Chinita

Current Time: Jan 31, 2015 at 12:14:57 PM

Latest Report: Jan 31, 2015 at 11:30 AM


Visibility: N/A

Pressure: 29.95 "Hg

Humidity: 70%

Dew point: 75 °F

Location of MaracaiboLocation

Historic Weather in Maracaibo — Graph

°F

Maracaibo temperature yesterday

Maximum temperature yesterday: 90 °F (at 1:30 PM)
Minimum temperature yesterday: 75 °F (at 7:30 AM)
Average temperature yesterday: 83 °F

Past Weeks' High & Low Weather Summary

 TemperatureHumidityPressure
High95 °F (Jan 27, 2:30 PM)100% (Jan 20, 3:30 PM)30.01 "Hg (Jan 20, 3:30 PM)
Low70 °F (Jan 20, 3:30 PM)52% (Jan 19, 1:30 PM)29.80 "Hg (Jan 20, 5:30 PM)
Average84 °F72%29.89 "Hg
* Reported Jan 16 10:30 AM — Jan 31 10:30 AM, Maracaibo, Weather by CustomWeather, © 2014

Note: Actual official high and low records may vary slightly from our data, if they occured in-between our weather recording intervals... More about our weather records

Advertising

Maracaibo weather history for previous 24 hours

 ConditionsComfort  
Time TempWeatherWind HumidityBarometerVisibility
10:30 AM
Jan 31
86 °FPartly sunny.N/A70%29.95 "HgN/A
9:30 AM82 °FScattered clouds.N/A74%29.95 "HgN/A
8:30 AM79 °FScattered clouds.N/A79%29.92 "HgN/A
7:30 AM75 °FScattered clouds.N/A89%29.89 "HgN/A
6:30 AM75 °FPassing clouds.N/A89%29.86 "HgN/A
5:30 AM75 °FPassing clouds.No wind89%29.83 "HgN/A
4:30 AM75 °FPassing clouds.No wind94%29.83 "HgN/A
1:30 AM86 °FPassing clouds.No wind59%29.86 "HgN/A
10:30 PM
Jan 30
79 °FPassing clouds.N/A79%29.89 "HgN/A
9:30 PM81 °FPassing clouds.N/A89%29.89 "HgN/A
8:30 PM81 °FPassing clouds.N/A74%29.86 "HgN/A
7:30 PM81 °FPassing clouds.N/A79%29.86 "HgN/A
6:30 PM82 °FPassing clouds.N/A74%29.86 "HgN/A
5:30 PM88 °FScattered clouds.N/A62%29.83 "HgN/A
4:30 PM88 °FScattered clouds.N/A62%29.83 "HgN/A
3:30 PM86 °FScattered clouds.N/A75%29.83 "HgN/A
2:30 PM90 °FScattered clouds.N/A75%29.86 "HgN/A
1:30 PM90 °FScattered clouds.N/A71%29.89 "HgN/A
12:30 PM88 °FScattered clouds.N/A75%29.92 "HgN/A
Weather by CustomWeather, © 2014

See weather overviewHow to use our weather pages